Regional Weather Roundup
Issued by NWS

Home | Current Version | Previous Version | Text Only | Print | Product List | Glossary On
Versions: 1 2 3 4 5 6 7 8 9 10 11 12 13 14 15 16 17 18 19 20 21 22 23 24 25 26 27
000
ASUS44 KLIX 300011
RWRLA
LOUISIANA WEATHER ROUNDUP
NATIONAL WEATHER SERVICE NEW ORLEANS LA
700 PM CDT FRI APR 29 2016

NOTE: "FAIR" INDICATES FEW OR NO CLOUDS BELOW 12,000 FEET WITH NO
      SIGNIFICANT WEATHER AND/OR OBSTRUCTIONS TO VISIBILITY.
      SKY/WX - SKY CONDITION AND SIGNIFICANT WEATHER.
      TMP - AIR TEMPERATURE.    DP   - DEWPOINT TEMPERATURE.
      RH  - RELATIVE HUMIDITY.  PRES - PRESSURE.
      HX  - HEAT INDEX.         WCI  - WIND CHILL INDEX.

*  THESE STATIONS ARE NOT NWS OR FAA STATIONS AND ARE NOT UNDER
   NWS QUALITY CONTROL.

LAZ040-048-061>063-065-066-069-300100-
SOUTHEAST LOUISIANA

CITY           SKY/WX    TMP DP  RH WIND       PRES   REMARKS
N.O. AUDUBON     N/A     81  73  75 MISG        N/A
6HR MIN TEMP:  81; 6HR MAX TEMP:  85;

N.O. INTL ARPT CLOUDY    81  71  71 SE14      29.84S
6HR MIN TEMP:  81; 6HR MAX TEMP:  87;

N.O. LAKEFRONT CLOUDY    77  71  82 SE13      29.86R
6HR MIN TEMP:  77; 6HR MAX TEMP:  82;

N.O. DOWNTOWN* MOCLDY    81  72  74 S10G17    29.85F
6HR MIN TEMP:  81; 6HR MAX TEMP:  87;

RESERVE*       FAIR      82  71  69 SE9       29.83F
6HR MIN TEMP:  82; 6HR MAX TEMP:  89;

SLIDELL        CLOUDY    79  74  84 SE9       29.85F
6HR MIN TEMP:  79; 6HR MAX TEMP:  84;

BATON ROUGE    CLOUDY    82  67  60 SE18      29.81S
6HR MIN TEMP:  82; 6HR MAX TEMP:  89;

BOOTHVILLE     PTCLDY    77  72  84 SE8       29.87R
6HR MIN TEMP:  77; 6HR MAX TEMP:  82;

BELLE CHASSE   CLOUDY    80  72  76 SE9       29.85S
6HR MIN TEMP:  80; 6HR MAX TEMP:  84;

BOGALUSA*      FAIR      81  69  65 S9        29.87S
6HR MIN TEMP:  81; 6HR MAX TEMP:  88;

GALLIANO*      MOCLDY    80  73  79 SE7       29.85S
6HR MIN TEMP:  80; 6HR MAX TEMP:  85;

NEW ROADS*     FAIR      81  69  66 SE12G17   29.80S
6HR MIN TEMP:  81; 6HR MAX TEMP:  87;

GONZALES*      FAIR      81  69  68 S9        29.82S
6HR MIN TEMP:  81; 6HR MAX TEMP:  86;

HAMMOND*       CLOUDY    79  68  69 SE12      29.83F
HOUMA*         MOCLDY    79  73  83 SE10G17   29.84R
PORT FOURCHON* PTCLDY    79  73  83 SE12G17   29.85R

$$

LAZ041-044-053-054-300100-
SOUTHWEST LOUISIANA

CITY           SKY/WX    TMP DP  RH WIND       PRES   REMARKS
LAKE CHARLES   CLOUDY    78  72  81 S17G25    29.74F
6HR MIN TEMP:  78; 6HR MAX TEMP:  84; 6HR PCP: TRACE;

LAFAYETTE      CLOUDY    80  71  74 S8G20     29.79R
6HR MIN TEMP:  80; 6HR MAX TEMP:  84; 6HR PCP: TRACE;

PATTERSON      NOT AVBL
SALT POINT       N/A     78  74  87 SE9       29.79R
6HR MIN TEMP:  78; 6HR MAX TEMP:  82;

NEW IBERIA     MOCLDY    79  71  76 SE16G26   29.80R
6HR MIN TEMP:  79; 6HR MAX TEMP:  84; 6HR PCP: TRACE;

CHENAULT AIRPK CLOUDY    79  72  78 SE17G24   29.74F

$$

LAZ027-028-300100-
CENTRAL LOUISIANA

CITY           SKY/WX    TMP DP  RH WIND       PRES   REMARKS
FORT POLK      CLOUDY    79  71  76 SE21G28   29.72S
6HR MIN TEMP:  79; 6HR MAX TEMP:  87;

ALEXANDRIA INT CLOUDY    80  69  69 SE13      29.74R
6HR MIN TEMP:  80; 6HR MAX TEMP:  88;

ALEXANDRIA     CLOUDY    83  68  60 S8        29.77R
6HR MIN TEMP:  83; 6HR MAX TEMP:  91;


$$

LAZ001-002-300100-
NORTHWEST LOUISIANA

CITY           SKY/WX    TMP DP  RH WIND       PRES   REMARKS
SHREVEPORT     LGT RAIN  72  69  90 E12       29.68F
6HR MIN TEMP:  72; 6HR MAX TEMP:  77; 6HR PCP:  0.04;

BARKSDALE AFB  LGT RAIN  69  69 100 E13       29.68F
6HR MIN TEMP:  69; 6HR MAX TEMP:  75; 6HR PCP:  0.07;

DTN SHREVEPORT CLOUDY    70  67  90 E9        29.69F
6HR MIN TEMP:  70; 6HR MAX TEMP:  75; 6HR PCP:  0.11;


$$

LAZ014-016-300100-
NORTHEAST LOUISIANA

CITY           SKY/WX    TMP DP  RH WIND       PRES   REMARKS
MONROE         CLOUDY    72  68  87 VRB3      29.77F
6HR MIN TEMP:  69; 6HR MAX TEMP:  74; 6HR PCP:  0.25;

TALLULAH       CLOUDY    79  72  79 E9        29.78F
6HR MIN TEMP:  78; 6HR MAX TEMP:  83;


$$





USA.gov is the U.S. government's official web portal to all federal, state and local government web resources and services.